{"data":{"norad_id":40136,"intl_designator":"2014-051A","name":"LING QIAO","alt_names":[],"object_type":"PAYLOAD","status":"ACTIVE","operator":null,"country":"PRC","launch_date":"2014-09-04","launch_site_code":"JSC","launch_vehicle":null,"mission":null,"orbit_class":"UNKNOWN","rcs_meters":0.3106,"size_class":null,"mass_kg":null,"dimensions":null,"purposes":[],"wikipedia_slug":null,"has_3d_model":false,"image_url":null,"decayed_at":null,"tle_current":{"epoch":"2026-09-20T04:45:17.360640Z","epoch_age_seconds":63369,"freshness":"FRESH","line1":"1 40136U 14051A   26263.19811760  .00000056  00000+0  38813-4 0  9994","line2":"2 40136  98.7122 265.0907 0019670 254.4062 105.4949 14.30283142628589","mean_motion":14.30283142,"eccentricity":0.001967,"inclination_deg":98.7122,"raan_deg":265.0907,"arg_perigee_deg":254.4062,"mean_anomaly_deg":105.4949,"bstar":3.8813e-5,"rev_number":62858,"period_min":100.67936604401,"perigee_km":776.6832842757,"apogee_km":804.88582166509,"semimajor_km":7168.9215529704,"source":"CELESTRAK","updated_at":"2026-09-20T09:00:14.022035Z"}}}